Time,TemperatureF,DewpointF,PressureIn,WindDirection,WindDirectionDegrees,WindSpeedMPH,WindSpeedGustMPH,Humidity,HourlyPrecipIn,Conditions,Clouds,dailyrainin,SoftwareType,DateUTC
2013-06-24 00:02:00,71.0,64.0,30.01,SW,219,0.0,0.0,78,0.00,,,0.00,,2013-06-24 04:02:00,
2013-06-24 00:12:00,70.0,64.0,30.01,SW,219,0.0,2.0,80,0.00,,,0.00,,2013-06-24 04:12:00,
2013-06-24 00:22:00,70.0,64.0,30.01,SW,219,0.0,2.0,80,0.00,,,0.00,,2013-06-24 04:22:00,
2013-06-24 00:33:00,69.0,63.0,30.00,SW,219,0.0,3.0,81,0.00,,,0.00,,2013-06-24 04:33:00,
2013-06-24 00:43:00,69.0,64.0,30.01,SW,219,0.0,2.0,83,0.00,,,0.00,,2013-06-24 04:43:00,
2013-06-24 00:52:00,68.0,63.0,30.01,SW,219,1.0,2.0,84,0.00,,,0.00,,2013-06-24 04:52:00,
2013-06-24 01:02:00,69.0,64.0,30.01,SW,219,0.0,1.0,83,0.00,,,0.00,,2013-06-24 05:02:00,
2013-06-24 01:12:00,68.0,63.0,30.00,SW,219,0.0,2.0,84,0.00,,,0.00,,2013-06-24 05:12:00,
2013-06-24 01:22:00,68.0,63.0,30.01,SW,219,0.0,1.0,85,0.00,,,0.00,,2013-06-24 05:22:00,
2013-06-24 01:36:00,68.0,63.0,30.01,SW,219,0.0,0.0,85,0.00,,,0.00,,2013-06-24 05:36:00,
2013-06-24 01:46:00,68.0,63.0,30.01,SW,219,0.0,0.0,85,0.00,,,0.00,,2013-06-24 05:46:00,
2013-06-24 01:53:00,67.0,63.0,30.02,SSW,207,3.0,6.0,86,0.00,,,0.00,,2013-06-24 05:53:00,
2013-06-24 02:08:00,67.0,63.0,30.01,SSW,207,0.0,3.0,87,0.00,,,0.00,,2013-06-24 06:08:00,
2013-06-24 02:14:00,67.0,63.0,30.01,SSW,207,0.0,3.0,87,0.00,,,0.00,,2013-06-24 06:14:00,
2013-06-24 02:24:00,67.0,63.0,30.01,SSW,207,0.0,3.0,87,0.00,,,0.00,,2013-06-24 06:24:00,
2013-06-24 02:37:00,66.0,63.0,30.02,SSW,207,0.0,0.0,89,0.00,,,0.00,,2013-06-24 06:37:00,
2013-06-24 02:45:00,66.0,63.0,30.02,SSW,207,0.0,0.0,89,0.00,,,0.00,,2013-06-24 06:45:00,
2013-06-24 02:57:00,66.0,63.0,30.02,SSW,207,0.0,0.0,89,0.00,,,0.00,,2013-06-24 06:57:00,
2013-06-24 03:14:00,66.0,64.0,30.01,SSW,207,2.0,2.0,92,0.00,,,0.00,,2013-06-24 07:14:00,
2013-06-24 03:30:00,66.0,63.0,30.01,SSW,207,0.0,4.0,91,0.00,,,0.00,,2013-06-24 07:30:00,
2013-06-24 03:37:00,66.0,63.0,30.01,SSW,207,0.0,2.0,91,0.00,,,0.00,,2013-06-24 07:37:00,
2013-06-24 03:47:00,66.0,63.0,30.01,SSW,207,1.0,3.0,91,0.00,,,0.00,,2013-06-24 07:47:00,
2013-06-24 04:04:00,66.0,63.0,30.00,SSW,207,0.0,3.0,91,0.00,,,0.00,,2013-06-24 08:04:00,
2013-06-24 04:14:00,66.0,63.0,30.01,SSW,207,0.0,1.0,90,0.00,,,0.00,,2013-06-24 08:14:00,
2013-06-24 04:26:00,66.0,63.0,30.01,SSW,207,0.0,1.0,90,0.00,,,0.00,,2013-06-24 08:26:00,
2013-06-24 04:35:00,66.0,63.0,30.01,SSW,207,0.0,1.0,90,0.00,,,0.00,,2013-06-24 08:35:00,
2013-06-24 04:46:00,66.0,63.0,30.00,SSW,207,0.0,2.0,91,0.00,,,0.00,,2013-06-24 08:46:00,
2013-06-24 04:53:00,66.0,63.0,30.01,SSW,207,0.0,0.0,90,0.00,,,0.00,,2013-06-24 08:53:00,
2013-06-24 05:07:00,65.0,62.0,30.01,SSW,207,0.0,1.0,90,0.00,,,0.00,,2013-06-24 09:07:00,
2013-06-24 05:15:00,64.0,62.0,30.01,SSW,207,1.0,2.0,92,0.00,,,0.00,,2013-06-24 09:15:00,
2013-06-24 05:26:00,64.0,62.0,30.01,SSW,207,1.0,2.0,92,0.00,,,0.00,,2013-06-24 09:26:00,
2013-06-24 05:47:00,63.0,61.0,30.01,SSW,207,0.0,0.0,94,0.00,,,0.00,,2013-06-24 09:47:00,
2013-06-24 05:56:00,63.0,61.0,30.01,SSW,207,0.0,0.0,94,0.00,,,0.00,,2013-06-24 09:56:00,
2013-06-24 06:05:00,63.0,61.0,30.01,SSW,207,0.0,0.0,94,0.00,,,0.00,,2013-06-24 10:05:00,
2013-06-24 06:14:00,63.0,62.0,30.01,SSW,207,0.0,0.0,95,0.00,,,0.00,,2013-06-24 10:14:00,
2013-06-24 06:24:00,62.0,61.0,30.01,SSW,207,0.0,0.0,95,0.00,,,0.00,,2013-06-24 10:24:00,
2013-06-24 06:37:00,63.0,62.0,30.01,SSW,207,0.0,0.0,96,0.00,,,0.00,,2013-06-24 10:37:00,
2013-06-24 06:50:00,62.0,61.0,30.01,SSW,207,0.0,1.0,95,0.00,,,0.00,,2013-06-24 10:50:00,
2013-06-24 07:03:00,63.0,62.0,30.02,SSW,207,0.0,0.0,96,0.00,,,0.00,,2013-06-24 11:03:00,
2013-06-24 07:29:00,64.0,63.0,30.02,SSW,207,0.0,0.0,97,0.00,,,0.00,,2013-06-24 11:29:00,
2013-06-24 07:34:00,66.0,65.0,30.02,SSW,207,0.0,0.0,97,0.00,,,0.00,,2013-06-24 11:34:00,
2013-06-24 07:47:00,66.0,65.0,30.02,SSW,207,0.0,2.0,96,0.00,,,0.00,,2013-06-24 11:47:00,
2013-06-24 07:56:00,67.0,66.0,30.03,SSW,207,1.0,2.0,95,0.00,,,0.00,,2013-06-24 11:56:00,
2013-06-24 08:06:00,68.0,66.0,30.03,SSW,207,0.0,3.0,93,0.00,,,0.00,,2013-06-24 12:06:00,
2013-06-24 08:16:00,69.0,66.0,30.03,SSW,207,2.0,3.0,90,0.00,,,0.00,,2013-06-24 12:16:00,
2013-06-24 08:36:00,69.0,66.0,30.03,SSW,207,0.0,3.0,89,0.00,,,0.00,,2013-06-24 12:36:00,
2013-06-24 08:48:00,71.0,67.0,30.03,SSW,207,3.0,4.0,86,0.00,,,0.00,,2013-06-24 12:48:00,
2013-06-24 09:06:00,73.0,68.0,30.03,SW,217,4.0,6.0,83,0.00,,,0.00,,2013-06-24 13:06:00,
2013-06-24 09:44:00,76.0,69.0,30.03,South,183,4.0,8.0,78,0.00,,,0.00,,2013-06-24 13:44:00,
2013-06-24 10:03:00,78.0,69.0,30.03,SW,214,6.0,8.0,74,0.00,,,0.00,,2013-06-24 14:03:00,
2013-06-24 10:16:00,78.0,69.0,30.03,SW,214,6.0,8.0,74,0.00,,,0.00,,2013-06-24 14:16:00,
2013-06-24 10:37:00,80.0,69.0,30.03,SW,233,3.0,6.0,70,0.00,,,0.00,,2013-06-24 14:37:00,
2013-06-24 10:46:00,81.0,70.0,30.02,SW,232,4.0,8.0,70,0.00,,,0.00,,2013-06-24 14:46:00,
2013-06-24 10:59:00,81.0,70.0,30.02,SW,216,8.0,9.0,70,0.00,,,0.00,,2013-06-24 14:59:00,
2013-06-24 11:05:00,81.0,70.0,30.02,SW,234,6.0,10.0,70,0.00,,,0.00,,2013-06-24 15:05:00,
2013-06-24 11:14:00,81.0,69.0,30.02,SW,225,4.0,12.0,68,0.00,,,0.00,,2013-06-24 15:14:00,
2013-06-24 11:27:00,82.0,71.0,30.01,SSW,202,7.0,8.0,69,0.00,,,0.00,,2013-06-24 15:27:00,
2013-06-24 11:54:00,83.0,72.0,30.02,SW,232,8.0,9.0,69,0.00,,,0.00,,2013-06-24 15:54:00,
2013-06-24 12:15:00,83.0,71.0,30.02,SW,224,10.0,10.0,67,0.00,,,0.00,,2013-06-24 16:15:00,
2013-06-24 12:24:00,83.0,70.0,30.02,SW,222,4.0,10.0,66,0.00,,,0.00,,2013-06-24 16:24:00,
2013-06-24 12:36:00,83.0,70.0,30.02,SW,219,7.0,11.0,66,0.00,,,0.00,,2013-06-24 16:36:00,
2013-06-24 13:35:00,85.0,70.0,30.01,SSW,201,5.0,11.0,62,0.00,,,0.00,,2013-06-24 17:35:00,
2013-06-24 14:25:00,84.0,71.0,29.99,WSW,237,6.0,11.0,65,0.00,,,0.00,,2013-06-24 18:25:00,
2013-06-24 14:36:00,86.0,69.0,29.99,South,171,7.0,12.0,58,0.00,,,0.00,,2013-06-24 18:36:00,
2013-06-24 14:46:00,86.0,67.0,29.98,SW,234,8.0,12.0,54,0.00,,,0.00,,2013-06-24 18:46:00,
2013-06-24 15:07:00,86.0,68.0,29.97,WSW,257,2.0,9.0,56,0.00,,,0.00,,2013-06-24 19:07:00,
2013-06-24 15:37:00,87.0,69.0,29.96,West,271,4.0,9.0,56,0.00,,,0.00,,2013-06-24 19:37:00,
2013-06-24 15:54:00,84.0,68.0,29.96,WSW,257,6.0,15.0,59,0.00,,,0.00,,2013-06-24 19:54:00,
2013-06-24 16:34:00,80.0,69.0,29.96,West,277,6.0,9.0,69,0.00,,,0.00,,2013-06-24 20:34:00,
2013-06-24 16:45:00,82.0,70.0,29.95,SW,221,4.0,9.0,68,0.00,,,0.00,,2013-06-24 20:45:00,
2013-06-24 17:25:00,84.0,70.0,29.94,SW,221,4.0,9.0,64,0.00,,,0.00,,2013-06-24 21:25:00,
2013-06-24 17:46:00,84.0,70.0,29.93,SW,215,4.0,7.0,63,0.00,,,0.00,,2013-06-24 21:46:00,
2013-06-24 17:53:00,84.0,70.0,29.93,SW,215,4.0,7.0,63,0.00,,,0.00,,2013-06-24 21:53:00,
2013-06-24 18:36:00,85.0,71.0,29.93,SW,229,5.0,10.0,63,0.00,,,0.00,,2013-06-24 22:36:00,
2013-06-24 18:55:00,83.0,70.0,29.92,SSW,194,6.0,10.0,66,0.00,,,0.00,,2013-06-24 22:55:00,
2013-06-24 19:05:00,83.0,71.0,29.92,SSW,199,3.0,9.0,68,0.00,,,0.00,,2013-06-24 23:05:00,
2013-06-24 19:14:00,83.0,70.0,29.92,SSW,205,3.0,8.0,65,0.00,,,0.00,,2013-06-24 23:14:00,
2013-06-24 19:27:00,83.0,70.0,29.92,South,180,3.0,10.0,65,0.00,,,0.00,,2013-06-24 23:27:00,
2013-06-24 19:34:00,83.0,70.0,29.92,SSW,212,7.0,10.0,66,0.00,,,0.00,,2013-06-24 23:34:00,
2013-06-24 19:45:00,82.0,70.0,29.92,SSW,207,3.0,9.0,67,0.00,,,0.00,,2013-06-24 23:45:00,
2013-06-24 19:53:00,82.0,70.0,29.92,SSW,211,4.0,8.0,68,0.00,,,0.00,,2013-06-24 23:53:00,
2013-06-24 20:05:00,82.0,70.0,29.93,SW,227,7.0,9.0,68,0.00,,,0.00,,2013-06-25 00:05:00,
2013-06-24 20:12:00,81.0,70.0,29.93,SSW,192,7.0,7.0,70,0.00,,,0.00,,2013-06-25 00:12:00,
2013-06-24 20:24:00,80.0,70.0,29.94,SSW,207,5.0,8.0,71,0.00,,,0.00,,2013-06-25 00:24:00,
2013-06-24 20:34:00,80.0,70.0,29.94,SSW,208,7.0,7.0,72,0.00,,,0.00,,2013-06-25 00:34:00,
2013-06-24 20:46:00,80.0,70.0,29.93,SSW,202,1.0,5.0,72,0.00,,,0.00,,2013-06-25 00:46:00,
2013-06-24 20:54:00,79.0,70.0,29.93,SSW,202,2.0,5.0,73,0.00,,,0.00,,2013-06-25 00:54:00,
2013-06-24 21:04:00,78.0,69.0,29.94,SSW,203,2.0,5.0,74,0.00,,,0.00,,2013-06-25 01:04:00,
2013-06-24 21:55:00,76.0,68.0,29.93,South,188,0.0,4.0,77,0.00,,,0.00,,2013-06-25 01:55:00,
2013-06-24 22:16:00,76.0,68.0,29.93,South,188,0.0,2.0,77,0.00,,,0.00,,2013-06-25 02:16:00,
2013-06-24 22:36:00,76.0,69.0,29.93,South,188,1.0,4.0,79,0.00,,,0.00,,2013-06-25 02:36:00,
2013-06-24 23:07:00,74.0,68.0,29.94,South,188,0.0,3.0,82,0.00,,,0.00,,2013-06-25 03:07:00,
2013-06-24 23:32:00,74.0,68.0,29.94,South,188,0.0,3.0,82,0.00,,,0.00,,2013-06-25 03:32:00,
2013-06-24 23:53:00,74.0,68.0,29.95,South,188,1.0,4.0,82,0.00,,,0.00,,2013-06-25 03:53:00,